Location: Decatur Area Astronomy Club
(40.0275°N, 88.7810°W)
Time: 05:34:35
(UTC-05:00)

Amateur Radio Satellites - All Passes

Search period start: 02 September 2015 05:04
Search period end: 03 September 2015 05:04
Location: Decatur Area Astronomy Club, 40.0275°N, 88.7810°W

Satellite Date Start Highest point End Downlink Frequencies (MHz)
Time Altitude Azimuth
AO-7 02 Sep 05:06:11 05:14:31 80° 106° (ESE) 05:22:49 29.400- 29.500
CUBESAT XI-V 02 Sep 05:09:56 05:13:02 19° 67° (ENE) 05:16:16 437.345
PHONESAT 2.4 02 Sep 05:26:02 05:29:09 34° 156° (SSE) 05:32:18 2401.200-2431.200
HORYU 2 02 Sep 05:29:31 05:33:48 46° 288° (WNW) 05:38:02 437.375
JAS-2 02 Sep 05:29:34 05:34:58 24° 299° (WNW) 05:39:45 435.910
STRAND 1 02 Sep 05:35:16 05:36:15 11° 60° (ENE) 05:37:31 437.568
VERMONT LUNAR 02 Sep 05:53:54 05:56:53 80° 6° (N) 05:59:52 437.305
Cosmos 2499 02 Sep 06:02:01 06:09:34 32° 292° (WNW) 06:17:12 435.465 / 435.565
CUTE-I 02 Sep 06:25:12 06:29:27 25° 93° (E) 06:33:50 437.470
PRISM 02 Sep 06:35:18 06:38:33 24° 69° (ENE) 06:41:52 437.425
CUBESAT XI-V 02 Sep 06:45:48 06:50:11 43° 262° (W) 06:54:34 437.345
AO-7 02 Sep 07:00:14 07:06:34 24° 305° (NW) 07:12:35 29.400- 29.500
AIST 1 02 Sep 07:00:22 07:00:50 10° 85° (E) 07:01:36
PHONESAT 2.4 02 Sep 07:03:28 07:06:52 89° 306° (NW) 07:10:18 2401.200-2431.200
STRAND 1 02 Sep 07:09:39 07:14:45 86° 79° (ENE) 07:19:53 437.568
Cubesat XI-IV 02 Sep 07:19:54 07:25:15 81° 102° (ESE) 07:30:36 437.490
VERMONT LUNAR 02 Sep 07:30:22 07:33:13 43° 200° (SSW) 07:36:04 437.305
YUBILEINY 02 Sep 07:38:56 07:47:05 41° 72° (ENE) 07:55:18 435.215
CUTE-I 02 Sep 08:04:44 08:09:42 40° 290° (WNW) 08:14:37 437.470
PRISM 02 Sep 08:10:25 08:13:54 26° 264° (W) 08:17:19 437.425
BRITE-PL 02 Sep 08:15:27 08:20:56 58° 99° (E) 08:26:33 437.365/2234.400
Cosmos 2491 02 Sep 08:26:29 08:34:18 41° 88° (E) 08:42:16 435.465 / 435.565
SO-50 02 Sep 08:32:47 08:36:12 19° 41° (NE) 08:39:40 436.795
AIST 1 02 Sep 08:33:49 08:38:00 58° 280° (W) 08:42:13
HO-68 02 Sep 08:36:21 08:42:22 29° 94° (E) 08:48:31 435.675
GOMX 1 02 Sep 08:36:48 08:42:11 55° 99° (E) 08:47:34 467.674
PHONESAT 2.4 02 Sep 08:41:24 08:44:49 88° 175° (S) 08:48:13 2401.200-2431.200
DOVE 4 02 Sep 08:43:12 08:48:09 38° 96° (E) 08:53:02 437.250
ISS 02 Sep 08:46:25 08:49:41 82° 326° (NW) 08:52:57 145.825
CUTE 1.7 + AOD 2 02 Sep 08:53:35 08:57:13 28° 95° (E) 09:00:53 437.475
STRAND 1 02 Sep 08:54:18 08:54:45 10° 273° (W) 08:54:48 437.568
Cosmos 2504 02 Sep 08:58:42 09:03:35 17° 59° (ENE) 09:08:47 435.465 / 435.565
Cubesat XI-IV 02 Sep 09:02:04 09:04:45 14° 299° (WNW) 09:07:09 437.490
CANX-2 02 Sep 09:07:32 09:11:37 46° 99° (E) 09:15:40 2200.000
CINEMA 3 02 Sep 09:17:37 09:22:11 35° 95° (E) 09:26:38 145.822/145.860
SEEDS 02 Sep 09:26:08 09:30:14 53° 99° (E) 09:34:19 437.485
UNISAT 6 02 Sep 09:27:40 09:30:26 16° 65° (ENE) 09:33:22 437.425
YUBILEINY 02 Sep 09:35:47 09:44:00 43° 272° (W) 09:52:02 435.215
Oscar 11 02 Sep 09:40:58 09:44:17 22° 93° (E) 09:47:41 145.826/435.025
COMPASS 1 02 Sep 09:45:21 09:49:30 70° 101° (E) 09:53:37 437.405
AAUSAT CUBESAT 2 02 Sep 09:54:07 09:58:16 75° 101° (ESE) 10:02:22 437.432
TIGRISAT 02 Sep 09:54:12 09:58:09 28° 69° (ENE) 10:02:12 435.000
BRITE-PL 02 Sep 09:54:57 09:59:03 21° 294° (WNW) 10:03:03 437.365/2234.400
AUBIESAT-1 02 Sep 09:59:59 10:04:16 36° 66° (ENE) 10:08:31 437.475
M-CUBED/EXP-1 PRIME 02 Sep 10:06:32 10:11:09 49° 68° (ENE) 10:15:42 437.505
DELFI C3 02 Sep 10:07:14 10:10:36 26° 95° (E) 10:14:00 145.870
CUSAT 1 02 Sep 10:07:16 10:14:18 35° 70° (ENE) 10:21:45 437.405
ANTELSAT 02 Sep 10:11:27 10:15:52 43° 72° (ENE) 10:20:21 437.575/2403.000
SO-50 02 Sep 10:12:22 10:17:18 70° 241° (WSW) 10:22:04 436.795
GOMX 1 02 Sep 10:15:51 10:19:54 21° 294° (WNW) 10:23:49 467.674
POLYITAN 1 02 Sep 10:17:54 10:20:42 18° 67° (ENE) 10:23:40 437.675
DUCHIFAT 1 02 Sep 10:18:57 10:21:37 17° 67° (ENE) 10:24:25 145.980
PHONESAT 2.4 02 Sep 10:19:26 10:22:30 31° 205° (SSW) 10:25:34 2401.200-2431.200
POPSAT HIP 1 02 Sep 10:19:48 10:22:38 18° 67° (ENE) 10:25:37 437.405
DOVE 4 02 Sep 10:21:14 10:25:42 27° 292° (WNW) 10:30:01 437.250
BUGSAT 1 02 Sep 10:21:33 10:22:08 10° 64° (ENE) 10:22:56 437.445
Cosmos 2491 02 Sep 10:22:58 10:31:09 43° 287° (WNW) 10:39:17 435.465 / 435.565
HO-68 02 Sep 10:23:28 10:30:26 53° 292° (WNW) 10:37:20 435.675
ISS 02 Sep 10:24:15 10:26:31 17° 341° (NNW) 10:28:45 145.825
ZACube-1 02 Sep 10:27:00 10:31:20 47° 98° (E) 10:35:34 437.345
CUTE 1.7 + AOD 2 02 Sep 10:29:38 10:33:02 23° 291° (WNW) 10:36:18 437.475
FUNcube-1 02 Sep 10:31:37 10:35:59 51° 99° (E) 10:40:14 145.935
CUBEBUG 2 02 Sep 10:33:55 10:38:37 83° 283° (WNW) 10:43:08 437.445
NANOSAT C BR1 02 Sep 10:36:07 10:39:38 26° 69° (ENE) 10:43:14 145.865
PCSat 02 Sep 10:36:11 10:41:27 48° 56° (NE) 10:46:42 145.827
QB50P2 02 Sep 10:36:20 10:39:57 28° 70° (ENE) 10:43:38 145.880/145.840
UWE-3 02 Sep 10:37:27 10:42:03 84° 101° (ESE) 10:46:30 435.000/436.395/437.385
CANX-2 02 Sep 10:44:42 10:47:11 15° 294° (WNW) 10:49:30 2200.000
DANDE 02 Sep 10:46:32 10:53:54 47° 74° (ENE) 11:02:05 436.750
Cosmos 2504 02 Sep 10:48:51 10:57:24 85° 82° (E) 11:05:21 435.465 / 435.565
QB50P1 02 Sep 10:50:02 10:53:57 38° 72° (ENE) 10:57:57 145.935-145.965
CINEMA 3 02 Sep 10:55:04 10:59:11 26° 292° (WNW) 11:03:07 145.822/145.860
HUMSAT D 02 Sep 10:58:31 11:02:29 39° 97° (E) 11:06:24 437.325/437.525
UNISAT 6 02 Sep 11:02:11 11:06:47 55° 260° (W) 11:11:26 437.425
SEEDS 02 Sep 11:03:36 11:05:37 13° 294° (WNW) 11:07:26 437.485
DX 1 02 Sep 11:11:26 11:15:17 30° 96° (E) 11:19:09 434.975-435.025
Oscar 11 02 Sep 11:16:42 11:20:31 30° 289° (WNW) 11:24:15 145.826/435.025
UKube-1 02 Sep 11:21:18 11:25:15 34° 97° (E) 11:29:13 .
TIGRISAT 02 Sep 11:30:43 11:34:48 29° 265° (W) 11:38:54 435.000
ESTCUBE 1 02 Sep 11:33:25 11:37:06 25° 94° (E) 11:40:53 437.505/2401.250
AUBIESAT-1 02 Sep 11:35:03 11:38:59 25° 261° (W) 11:42:46 437.475
CUBEBUG 1 02 Sep 11:35:56 11:39:20 22° 93° (E) 11:42:50 437.445
AISAT 02 Sep 11:40:04 11:44:18 41° 98° (E) 11:48:33 437.250
DELFI C3 02 Sep 11:42:25 11:45:33 22° 291° (WNW) 11:48:35 145.870
M-CUBED/EXP-1 PRIME 02 Sep 11:42:42 11:46:07 19° 263° (W) 11:49:22 437.505
CUSAT 1 02 Sep 11:49:26 11:57:08 54° 267° (W) 12:04:58 437.405
ANTELSAT 02 Sep 11:49:30 11:52:52 19° 269° (W) 11:56:06 437.575/2403.000
POLYITAN 1 02 Sep 11:52:18 11:56:19 40° 262° (W) 12:00:23 437.675
BUGSAT 1 02 Sep 11:53:01 11:57:04 67° 258° (WSW) 12:01:11 437.445
DUCHIFAT 1 02 Sep 11:53:05 11:57:06 41° 262° (W) 12:01:09 145.980
POPSAT HIP 1 02 Sep 11:54:14 11:58:14 38° 262° (W) 12:02:15 437.405
ISS 02 Sep 12:03:02 12:03:57 11° 1° (N) 12:04:53 145.825
ZACube-1 02 Sep 12:04:28 12:07:19 16° 294° (WNW) 12:09:58 437.345
VELOX 1 02 Sep 12:07:36 12:12:06 80° 102° (ESE) 12:16:34 145.980
50 SAT 02 Sep 12:08:21 12:12:13 73° 285° (WNW) 12:16:01 437.505
FUNcube-1 02 Sep 12:09:15 12:11:52 15° 295° (WNW) 12:14:18 145.935
NANOSAT C BR1 02 Sep 12:11:51 12:15:25 25° 265° (W) 12:18:55 145.865
QB50P2 02 Sep 12:12:19 12:15:49 24° 266° (W) 12:19:17 145.880/145.840
UWE-3 02 Sep 12:17:26 12:17:55 10° 298° (WNW) 12:18:07 435.000/436.395/437.385
PCSat 02 Sep 12:20:20 12:24:34 23° 252° (WSW) 12:28:39 145.827
TISAT 1 02 Sep 12:23:37 12:25:02 12° 89° (E) 12:26:41 437.305
QB50P1 02 Sep 12:27:05 12:30:01 17° 268° (W) 12:32:48 145.935-145.965
GONETS M04 02 Sep 12:27:29 12:33:11 19° 61° (ENE) 12:39:21
Oscar 19 02 Sep 12:27:34 12:31:19 21° 65° (ENE) 12:35:15 437.125/150
DANDE 02 Sep 12:29:48 12:37:01 40° 268° (W) 12:44:42 436.750
HUMSAT D 02 Sep 12:35:05 12:37:56 17° 293° (WNW) 12:40:37 437.325/437.525
Cosmos 2504 02 Sep 12:43:08 12:48:33 18° 281° (W) 12:53:20 435.465 / 435.565
DX 1 02 Sep 12:47:51 12:51:24 24° 292° (WNW) 12:54:54 434.975-435.025
UKube-1 02 Sep 12:57:52 13:01:11 21° 293° (WNW) 13:04:24 .
SPROUT 02 Sep 13:00:01 13:04:18 57° 100° (E) 13:08:34 437.525
ESTCUBE 1 02 Sep 13:10:03 13:13:58 29° 290° (WNW) 13:17:49 437.505/2401.250
CUBEBUG 1 02 Sep 13:11:47 13:15:45 33° 289° (WNW) 13:19:41 437.445
AISAT 02 Sep 13:17:23 13:20:36 19° 293° (WNW) 13:23:41 437.250
Gurwin Techsat 1B 02 Sep 13:22:28 13:26:25 22° 66° (ENE) 13:30:31 435.225
ITAMSAT 1 02 Sep 13:30:19 13:34:04 21° 65° (ENE) 13:37:58 435.822/435.867
ITUPSAT 1 02 Sep 13:30:33 13:31:13 10° 87° (E) 13:32:14 437.325
BEESAT 3 02 Sep 13:36:57 13:38:39 13° 110° (ESE) 13:40:33 437.485
ISS 02 Sep 13:38:53 13:41:21 20° 21° (NNE) 13:43:50 145.825
VELOX 1 02 Sep 13:47:12 13:48:04 10° 297° (WNW) 13:48:40 145.980
BEESAT 2 02 Sep 13:51:24 13:53:24 14° 110° (ESE) 13:55:36 435.950
JAS-2 02 Sep 13:53:37 14:00:02 31° 64° (ENE) 14:06:42 435.910
TISAT 1 02 Sep 13:57:00 14:01:13 57° 286° (WNW) 14:05:24 437.305
BEESAT 02 Sep 14:00:01 14:03:45 23° 94° (E) 14:07:35 436.000
Cosmos 2499 02 Sep 14:01:29 14:07:10 20° 61° (ENE) 14:13:01 435.465 / 435.565
RS-15 02 Sep 14:04:44 14:09:18 14° 99° (E) 14:14:55 29.354- 29.394
Oscar 19 02 Sep 14:05:24 14:10:22 47° 261° (W) 14:15:23 437.125/150
AO-7 02 Sep 14:14:31 14:20:28 23° 55° (NE) 14:26:41 29.400- 29.500
GONETS M04 02 Sep 14:22:35 14:31:27 88° 263° (W) 14:40:18
SWISSCUBE 02 Sep 14:25:38 14:30:14 47° 99° (E) 14:34:49 437.505
SPROUT 02 Sep 14:37:46 14:39:56 13° 295° (WNW) 14:41:54 437.525
HORYU 2 02 Sep 14:52:28 14:54:52 15° 65° (ENE) 14:57:27 437.375
Gurwin Techsat 1B 02 Sep 15:01:01 15:06:07 47° 261° (W) 15:11:14 435.225
ITUPSAT 1 02 Sep 15:04:59 15:09:46 76° 284° (WNW) 15:14:31 437.325
ITAMSAT 1 02 Sep 15:08:18 15:13:17 47° 261° (W) 15:18:16 435.822/435.867
BEESAT 3 02 Sep 15:12:09 15:16:09 55° 304° (NW) 15:20:10 437.485
ISS 02 Sep 15:14:49 15:18:04 71° 220° (SW) 15:21:17 145.825
BEESAT 2 02 Sep 15:27:03 15:31:03 52° 305° (NW) 15:35:06 435.950
JAS-2 02 Sep 15:37:01 15:44:37 61° 261° (W) 15:52:23 435.910
BEESAT 02 Sep 15:37:21 15:41:42 35° 290° (WNW) 15:45:58 436.000
Cosmos 2499 02 Sep 15:53:03 16:01:44 86° 264° (W) 16:09:45 435.465 / 435.565
STARS 02 Sep 15:54:21 15:58:25 35° 97° (E) 16:02:30 437.465
AO-7 02 Sep 16:04:04 16:12:27 83° 254° (WSW) 16:20:50 29.400- 29.500
SWISSCUBE 02 Sep 16:04:26 16:07:46 19° 294° (WNW) 16:10:56 437.505
RS-15 02 Sep 16:09:05 16:19:53 73° 117° (ESE) 16:31:10 29.354- 29.394
AIST 2 02 Sep 16:16:00 16:20:14 82° 302° (WNW) 16:24:30 435.215
KKS-1 02 Sep 16:17:31 16:22:01 75° 285° (WNW) 16:26:29 437.445
GONETS M04 02 Sep 16:21:55 16:27:12 17° 281° (W) 16:31:55
HORYU 2 02 Sep 16:26:40 16:31:05 55° 260° (W) 16:35:32 437.375
MOZHAYETS 4 02 Sep 16:43:52 16:47:51 30° 95° (E) 16:51:52
Cubesat XI-IV 02 Sep 17:03:59 17:07:06 16° 63° (ENE) 17:10:24 437.490
STARS 02 Sep 17:31:15 17:34:39 21° 293° (WNW) 17:37:58 437.465
O/OREOS (USA 219) 02 Sep 17:37:47 17:39:03 11° 99° (E) 17:40:35 437.305
CUTE-I 02 Sep 17:46:18 17:51:09 38° 70° (ENE) 17:56:04 437.470
Cosmos 2499 02 Sep 17:48:51 17:53:38 16° 282° (WNW) 17:57:45 435.465 / 435.565
AIST 2 02 Sep 17:58:04 17:59:32 11° 322° (NW) 18:00:52 435.215
AO-7 02 Sep 18:01:47 18:06:36 15° 273° (W) 18:10:50 29.400- 29.500
MOZHAYETS 4 02 Sep 18:21:12 18:24:59 25° 291° (WNW) 18:28:40
RS-15 02 Sep 18:23:20 18:33:24 37° 323° (NW) 18:43:44 29.354- 29.394
Cosmos 2491 02 Sep 18:38:04 18:43:42 19° 61° (ENE) 18:49:47 435.465 / 435.565
Cubesat XI-IV 02 Sep 18:41:24 18:46:42 67° 258° (WSW) 18:52:01 437.490
AIST 1 02 Sep 18:41:40 18:45:29 30° 75° (ENE) 18:49:21
CUBESAT XI-V 02 Sep 18:42:45 18:47:15 48° 99° (E) 18:51:46 437.345
HO-68 02 Sep 19:05:31 19:10:32 22° 59° (ENE) 19:15:49 435.675
O/OREOS (USA 219) 02 Sep 19:13:27 19:17:57 65° 294° (WNW) 19:22:31 437.305
STRAND 1 02 Sep 19:21:13 19:25:39 30° 95° (E) 19:30:10 437.568
BRITE-PL 02 Sep 19:26:10 19:30:26 54° 73° (ENE) 19:35:05 437.365/2234.400
CUTE-I 02 Sep 19:26:56 19:31:21 26° 266° (W) 19:35:42 437.470
GOMX 1 02 Sep 19:44:27 19:48:50 49° 73° (ENE) 19:53:34 467.674
CUTE 1.7 + AOD 2 02 Sep 19:46:16 19:49:21 20° 69° (ENE) 19:52:33 437.475
DOVE 4 02 Sep 19:48:12 19:52:20 33° 70° (ENE) 19:56:47 437.250
PRISM 02 Sep 19:52:24 19:56:17 41° 98° (E) 20:00:12 437.425
CANX-2 02 Sep 19:59:51 20:03:36 31° 71° (ENE) 20:07:25 2200.000
SEEDS 02 Sep 20:17:27 20:21:16 34° 72° (ENE) 20:25:09 437.485
CINEMA 3 02 Sep 20:18:32 20:22:37 30° 69° (ENE) 20:26:55 145.822/145.860
AIST 1 02 Sep 20:19:39 20:22:59 21° 271° (W) 20:26:12
CUBESAT XI-V 02 Sep 20:21:14 20:24:21 17° 294° (WNW) 20:27:19 437.345
Cosmos 2491 02 Sep 20:33:10 20:41:59 88° 263° (W) 20:50:47 435.465 / 435.565
COMPASS 1 02 Sep 20:35:38 20:39:37 42° 73° (ENE) 20:43:37 437.405
Oscar 11 02 Sep 20:35:47 20:38:32 17° 67° (ENE) 20:41:26 145.826/435.025
YUBILEINY 02 Sep 20:38:48 20:47:00 48° 89° (E) 20:55:22 435.215
RS-15 02 Sep 20:42:48 20:50:32 20° 356° (N) 20:58:26 29.354- 29.394
AAUSAT CUBESAT 2 02 Sep 20:43:56 20:47:55 44° 73° (ENE) 20:51:55 437.432
HO-68 02 Sep 20:50:28 20:57:37 76° 256° (WSW) 21:04:51 435.675
DELFI C3 02 Sep 20:54:29 20:56:56 16° 68° (ENE) 20:59:31 145.870
STRAND 1 02 Sep 21:00:21 21:04:51 31° 292° (WNW) 21:09:16 437.568
BRITE-PL 02 Sep 21:07:14 21:09:32 13° 273° (W) 21:11:41 437.365/2234.400
CUTE 1.7 + AOD 2 02 Sep 21:21:08 21:25:04 34° 264° (W) 21:28:58 437.475
ZACube-1 02 Sep 21:22:00 21:26:07 35° 71° (ENE) 21:30:21 437.345
GOMX 1 02 Sep 21:24:30 21:27:25 16° 272° (W) 21:30:15 467.674
DOVE 4 02 Sep 21:26:17 21:30:09 25° 268° (W) 21:34:09 437.250
FUNcube-1 02 Sep 21:26:18 21:30:30 38° 72° (ENE) 21:34:46 145.935
PRISM 02 Sep 21:28:49 21:31:25 16° 294° (WNW) 21:33:53 437.425
CUBEBUG 2 02 Sep 21:30:46 21:35:24 76° 76° (ENE) 21:40:11 437.445
Cosmos 2504 02 Sep 21:32:29 21:34:09 11° 75° (ENE) 21:36:35 435.465 / 435.565
UWE-3 02 Sep 21:33:16 21:37:49 63° 75° (ENE) 21:42:28 435.000/436.395/437.385
CANX-2 02 Sep 21:36:13 21:39:36 21° 267° (W) 21:42:51 2200.000
HUMSAT D 02 Sep 21:49:35 21:53:12 27° 70° (ENE) 21:56:53 437.325/437.525
SEEDS 02 Sep 21:54:04 21:57:11 19° 268° (W) 22:00:10 437.485
CINEMA 3 02 Sep 21:55:41 21:59:46 28° 266° (W) 22:03:58 145.822/145.860
DX 1 02 Sep 22:06:43 22:10:11 24° 68° (ENE) 22:13:45 434.975-435.025
Oscar 11 02 Sep 22:10:16 22:14:25 42° 262° (W) 22:18:34 145.826/435.025
COMPASS 1 02 Sep 22:12:59 22:15:31 15° 269° (W) 22:17:54 437.405
UKube-1 02 Sep 22:15:39 22:19:16 27° 69° (ENE) 22:22:57 .
AAUSAT CUBESAT 2 02 Sep 22:21:24 22:23:47 14° 270° (W) 22:25:59 437.432
DELFI C3 02 Sep 22:27:54 22:31:43 39° 262° (W) 22:35:31 145.870
CUBEBUG 1 02 Sep 22:32:09 22:34:58 18° 66° (ENE) 22:37:54 437.445
Cosmos 2491 02 Sep 22:32:33 22:37:45 17° 281° (W) 22:42:25 435.465 / 435.565
ESTCUBE 1 02 Sep 22:32:46 22:36:12 22° 68° (ENE) 22:39:44 437.505/2401.250
YUBILEINY 02 Sep 22:36:01 22:44:04 37° 289° (WNW) 22:52:02 435.215
AISAT 02 Sep 22:37:13 22:41:10 34° 71° (ENE) 22:45:11 437.250
HO-68 02 Sep 22:44:15 22:46:43 11° 275° (W) 22:48:33 435.675
50 SAT 02 Sep 22:50:39 22:54:30 53° 75° (ENE) 22:58:22 437.505
UNISAT 6 02 Sep 22:55:12 22:59:16 32° 95° (E) 23:03:16 437.425
RS-15 02 Sep 22:58:30 23:08:16 30° 30° (NNE) 23:18:37 29.354- 29.394
ZACube-1 02 Sep 22:59:01 23:02:35 22° 268° (W) 23:06:04 437.345
FUNcube-1 02 Sep 23:03:33 23:06:58 20° 268° (W) 23:10:17 145.935
VELOX 1 02 Sep 23:04:18 23:08:39 65° 75° (ENE) 23:13:03 145.980
CUBEBUG 2 02 Sep 23:11:46 23:12:45 10° 274° (W) 23:13:25 437.445
UWE-3 02 Sep 23:12:42 23:14:51 13° 272° (W) 23:16:45 435.000/436.395/437.385
CUSAT 1 02 Sep 23:14:53 23:17:57 21° 84° (E) 23:21:49 437.405
AUBIESAT-1 02 Sep 23:16:25 23:19:28 23° 98° (E) 23:22:23 437.475
Cosmos 2504 02 Sep 23:16:50 23:24:51 67° 93° (E) 23:33:23 435.465 / 435.565
TIGRISAT 02 Sep 23:22:32 23:27:04 63° 100° (E) 23:31:26 435.000
M-CUBED/EXP-1 PRIME 02 Sep 23:23:40 23:27:13 34° 101° (E) 23:30:32 437.505
HUMSAT D 02 Sep 23:25:13 23:28:52 26° 266° (W) 23:32:28 437.325/437.525
BEESAT 3 02 Sep 23:31:02 23:35:03 69° 56° (ENE) 23:39:00 437.485
BUGSAT 1 02 Sep 23:36:33 23:39:30 19° 92° (E) 23:42:36 437.445
POLYITAN 1 02 Sep 23:38:12 23:42:06 33° 96° (E) 23:46:01 437.675
DUCHIFAT 1 02 Sep 23:38:18 23:42:07 31° 96° (E) 23:45:57 145.980
POPSAT HIP 1 02 Sep 23:39:52 23:43:47 34° 97° (E) 23:47:42 437.405
ANTELSAT 02 Sep 23:40:35 23:45:09 79° 284° (WNW) 23:49:34 437.575/2403.000
DX 1 02 Sep 23:42:33 23:46:20 28° 264° (W) 23:50:05 434.975-435.025
BEESAT 2 02 Sep 23:46:29 23:50:33 75° 57° (ENE) 23:54:32 435.950
UKube-1 02 Sep 23:51:45 23:55:22 25° 265° (W) 23:58:55 .
SPROUT 02 Sep 23:53:24 23:57:24 40° 72° (ENE) 00:01:28 437.525
NANOSAT C BR1 02 Sep 23:56:24 00:00:37 52° 100° (E) 00:04:47 145.865
QB50P2 02 Sep 23:57:12 00:01:28 57° 101° (E) 00:05:41 145.880/145.840
DANDE 02 Sep 23:59:01 00:02:15 33° 89° (E) 00:06:29 436.750
CUBEBUG 1 03 Sep 00:06:56 00:11:01 41° 262° (W) 00:15:08 437.445
ESTCUBE 1 03 Sep 00:08:50 00:12:54 33° 263° (W) 00:16:57 437.505/2401.250
QB50P1 03 Sep 00:11:00 00:15:19 80° 102° (ESE) 00:19:36 145.935-145.965
AISAT 03 Sep 00:14:26 00:17:50 21° 267° (W) 00:21:09 437.250
SO-50 03 Sep 00:25:48 00:30:19 45° 116° (ESE) 00:35:01 436.795
50 SAT 03 Sep 00:28:16 00:29:23 11° 271° (W) 00:30:17 437.505
UNISAT 6 03 Sep 00:32:15 00:35:53 23° 292° (WNW) 00:39:21 437.425
ITUPSAT 1 03 Sep 00:36:22 00:38:24 13° 63° (ENE) 00:40:39 437.325
AIST 2 03 Sep 00:38:21 00:42:26 52° 54° (NE) 00:46:27 435.215
VELOX 1 03 Sep 00:44:29 00:45:44 11° 272° (W) 00:46:41 145.980
TISAT 1 03 Sep 00:47:59 00:52:11 85° 255° (WSW) 00:56:27 437.305
AUBIESAT-1 03 Sep 00:51:04 00:54:09 23° 297° (WNW) 00:57:00 437.475
CUSAT 1 03 Sep 00:56:21 01:00:07 32° 291° (WNW) 01:04:58 437.405
M-CUBED/EXP-1 PRIME 03 Sep 00:59:11 01:01:44 16° 300° (WNW) 01:04:02 437.505
TIGRISAT 03 Sep 01:01:05 01:03:17 13° 296° (WNW) 01:05:15 435.000
BEESAT 03 Sep 01:05:58 01:09:50 26° 68° (ENE) 01:13:49 436.000
RS-15 03 Sep 01:10:58 01:22:54 82° 57° (ENE) 01:35:13 29.354- 29.394
Cosmos 2504 03 Sep 01:11:04 01:17:53 26° 294° (WNW) 01:24:41 435.465 / 435.565
BUGSAT 1 03 Sep 01:11:11 01:15:06 36° 288° (WNW) 01:18:59 437.445
DUCHIFAT 1 03 Sep 01:14:25 01:17:45 22° 292° (WNW) 01:21:00 145.980
POLYITAN 1 03 Sep 01:14:32 01:17:49 21° 292° (WNW) 01:20:58 437.675
POPSAT HIP 1 03 Sep 01:16:12 01:19:26 21° 292° (WNW) 01:22:34 437.405
PCSat 03 Sep 01:17:04 01:22:16 50° 113° (ESE) 01:27:31 145.827
GONETS M04 03 Sep 01:29:10 01:35:01 22° 81° (E) 01:41:17
SPROUT 03 Sep 01:30:49 01:33:41 17° 269° (W) 01:36:26 437.525
SWISSCUBE 03 Sep 01:31:27 01:36:03 50° 72° (ENE) 01:40:40 437.505
NANOSAT C BR1 03 Sep 01:33:43 01:36:02 14° 295° (WNW) 01:38:10 145.865
QB50P2 03 Sep 01:34:47 01:36:54 13° 295° (WNW) 01:38:49 145.880/145.840
VERMONT LUNAR 03 Sep 01:37:09 01:37:44 10° 147° (SSE) 01:38:24 437.305
DANDE 03 Sep 01:43:11 01:45:49 16° 299° (WNW) 01:48:46 436.750
SO-50 03 Sep 02:07:04 02:11:06 25° 315° (NW) 02:15:09 436.795
ITUPSAT 1 03 Sep 02:11:00 02:15:46 71° 258° (WSW) 02:20:33 437.325
Oscar 19 03 Sep 02:17:20 02:22:31 65° 101° (E) 02:27:40 437.125/150
AIST 2 03 Sep 02:18:21 02:20:36 14° 250° (WSW) 02:22:39 435.215
Cosmos 2499 03 Sep 02:39:19 02:43:24 15° 78° (ENE) 02:48:09 435.465 / 435.565
BEESAT 03 Sep 02:43:17 02:47:34 32° 264° (W) 02:51:50 436.000
JAS-2 03 Sep 02:49:50 02:54:49 22° 88° (E) 02:59:35 435.910
STARS 03 Sep 02:50:41 02:54:27 29° 70° (ENE) 02:58:20 437.465
PCSat 03 Sep 03:01:32 03:05:59 25° 312° (NW) 03:10:23 145.827
VERMONT LUNAR 03 Sep 03:10:49 03:13:42 45° 161° (SSE) 03:16:36 437.305
SWISSCUBE 03 Sep 03:11:12 03:14:15 16° 269° (W) 03:17:05 437.505
KKS-1 03 Sep 03:14:42 03:19:09 89° 255° (WSW) 03:23:40 437.445
Gurwin Techsat 1B 03 Sep 03:17:33 03:22:53 74° 102° (ESE) 03:28:11 435.225
ITAMSAT 1 03 Sep 03:21:28 03:26:37 64° 101° (E) 03:31:47 435.822/435.867
GONETS M04 03 Sep 03:22:20 03:31:02 76° 280° (W) 03:39:47
RS-15 03 Sep 03:24:51 03:34:24 27° 256° (WSW) 03:43:34 29.354- 29.394
MOZHAYETS 4 03 Sep 03:45:18 03:49:08 27° 70° (ENE) 03:53:03
O/OREOS (USA 219) 03 Sep 03:45:30 03:49:03 22° 57° (ENE) 03:52:40 437.305
Oscar 19 03 Sep 03:58:10 04:01:23 16° 297° (WNW) 04:04:25 437.125/150
AO-7 03 Sep 04:06:55 04:14:13 35° 96° (E) 04:21:39 29.400- 29.500
HORYU 2 03 Sep 04:18:47 04:22:38 28° 95° (E) 04:26:30 437.375
Cosmos 2499 03 Sep 04:26:48 04:35:16 80° 95° (E) 04:44:12 435.465 / 435.565
STARS 03 Sep 04:27:14 04:30:54 25° 266° (W) 04:34:32 437.465
JAS-2 03 Sep 04:33:45 04:40:33 58° 289° (WNW) 04:46:29 435.910
PHONESAT 2.4 03 Sep 04:40:29 04:43:24 26° 153° (SSE) 04:46:21 2401.200-2431.200
VERMONT LUNAR 03 Sep 04:47:04 04:50:04 80° 0° (N) 04:53:02 437.305
